SCP
0 0 0 0 0 0 0 0 0 0 0 0 0 0 0 0 0 0 0 0 0 0 0 0 0 0 0 0 0 0 0 0 0 0 0 0 0 0 0 0 0 0 0 0 0 0 0 0 0 0 0 0 0 0
0 0 0 0 0 0 0 0 0 0 0 0 0 0 0 0 0 0 0 0 0 0 0 0 0 0 0 0 0 0 0 0 0 0 0 0 0 0 0 0 0 0 0 0 0 0 0 0 0 0 0 0 0 0
0 0 0 0 0 0 0 0 0 0 0 0 0 0 0 0 0 0 0 0 0 0 0 0 0 0 0 0 0 0 0 0 0 0 0 0 0 0 0 0 0 0 0 0 0 0 0 0 0 0 0 0 0 0
0 0 0 0 0 0 0 0 0 0 0 0 0 0 0 0 0 0 0 0 0 0 0 0 0 0 0 0 0 0 0 0 0 0 0 0 0 0 0 0 0 0 0 0 0 0 0 0 0 0 0 0 0 0
0 0 0 0 0 0 0 0 0 0 0 0 0 0 0 0 0 0 0 0 0 0 0 0 0 0 0 0 0 0 0 0 0 0 0 0 0 0 0 0 0 0 0 0 0 0 0 0 0 0 0 0 0 0
0 0 0 0 0 0 0 0 0 0 0 0 0 0 0 0 0 0 0 0 0 0 0 0 0 0 0 0 0 0 0 0 0 0 0 0 0 0 0 0 0 0 0 0 0 0 0 0 0 0 0 0 0 0
0 0 0 0 0 0 0 0 0 0 0 0 0 0 0 0 0 0 0 0 0 0 0 0 0 0 0 0 0 0 0 0 0 0 0 0 0 0 0 0 0 0 0 0 0 0 0 0 0 0 0 0 0 0
0 0 0 0 0 0 0 0 0 0 0 0 0 0 0 0 0 0 0 0 0 0 0 0 0 0 0 0 0 0 0 0 0 0 0 0 0 0 0 0 0 0 0 0 0 0 0 0 0 0 0 0 0 0
0 0 0 0 0 0 0 0 0 0 0 0 0 0 0 0 0 0 0 0 0 0 0 0 0 0 0 0 0 0 0 0 0 0 0 0 0 0 0 0 0 0 0 0 0 0 0 0 0 0 0 0 0 0
0 0 0 0 0 0 0 0 0 0 0 0 0 0 0 0 0 0 0 0 0 0 0 0 0 0 0 0 0 0 0 0 0 0 0 0 0 0 0 0 0 0 0 0 0 0 0 0 0 0 0 0 0 0
0 0 0 0 0 0 0 0 0 0 0 0 0 0 0 0 0 0 0 0 0 0 0 0 0 0 0 0 0 0 0 0 0 0 0 0 0 0 0 0 0 0 0 0 0 0 0 0 0 0 0 0 0 0
0 0 0 0 0 0 0 0 0 0 0 0 0 0 0 0 0 0 0 0 0 0 0 0 0 0 0 0 0 0 0 0 0 0 0 0 0 0 0 0 0 0 0 0 0 0 0 0 0 0 0 0 0 0
0 0 0 0 0 0 0 0 0 0 0 0 0 0 0 0 0 0 0 0 0 0 0 0 0 0 0 0 0 0 0 0 0 0 0 0 0 0 0 0 0 0 0 0 0 0 0 0 0 0 0 0 0 0
0 0 0 0 0 0 0 0 0 0 0 0 0 0 0 0 0 0 0 0 0 0 0 0 0 0 0 0 0 0 0 0 0 0 0 0 0 0 0 0 0 0 0 0 0 0 0 0 0 0 0 0 0 0
0 0 0 -0 -0 0 0 0 0 0 0 0 0 0 0 0 0 0 0 0 0 0 0 0 0 0 0 0 0 0 0 0 0 0 0 0 0 0 0 0 0 0 0 0 0 0 0 0 0 0 0 0 0 0
0 0 0 -0 0 0 0 0 0 0 0 0 0 0 0 0 0 -0 0 0 -0 0 0 0 0 0 0 0 0 0 0 0 0 0 0 0 0 0 0 0 0 0 0 0 0 0 0 0 0 0 0 0 0 0
0 0 -0 -0 0 0 0 0 0 0 0 0 0 0 0 0 0 0 0 0 0 0 0 0 0 0 0 0 0 0 0 0 0 0 0 0 0 0 0 0 0 0 0 0 0 0 0 0 0 0 0 0 0 0
0 0 -0 -0 -0 0 0 0 0 0 0 0 0 0 -0 0 0 0 0 0 0 0 0 0 0 0 0 0 0 0 0 0 0 0 0 0 0 0 0 0 0 0 0 0 0 0 0 0 0 0 0 -0 0 0
0 0 0 0 0 0 0 0 0 0 0 0 0 0 0 0 0 0 0 0 0 0 0 0 0 0 0 0 0 0 0 0 0 0 0 0 0 0 0 0 0 0 0 0 0 0 0 0 0 0 -0 -0 0 0
-0 0 0 0 0 0 0 0 0 0 0 0 0 0 0 0 0 0 0 0 0 0 0 0 0 0 0 0 0 0 0 0 0 0 0 0 0 0 0 0 0 0 0 0 0 0 0 0 0 -0 0 0 0 0
0 0 0 -0 0 0 0 0 0 0 0 0 0 0 0 0 0 0 0 0 0 0 0 0 0 0 0 0 0 0 0 0 0 0 0 0 0 0 0 0 0 0 0 0 0 0 0 0 0 0 0 0 0 0
-0 -0 -0 -0 -0 -0 0 0 0 0 0 0 0 0 0 0 0 0 0 0 0 0 0 0 0 0 0 0 0 0 0 0 0 0 -0 -0 0 0 0 0 0 0 -0 0 0 0 0 0 0 0 -0 0 0 0
0 0 0 0 0 0 0 0 0 0 0 0 0 0 0 0 0 0 0 0 0 0 0 0 0 0 0 0 0 0 -0 -0 -0 -0 -0 -0 -0 0 0 0 0 -0 -0 0 -0 -0 0 0 0 0 0 -0 0 0
0 0 0 0 0 0 0 0 0 0 0 0 0 0 0 0 0 0 0 0 0 0 0 0 0 0 0 0 -0 -0 -0 -0 -0 -0 -0 0 0 0 0 0 -0 -0 -0 -0 -0 0 0 0 0 0 0 0 0 0
0 0 0 0 0 0 0 0 0 0 0 0 0 0 0 0 0 0 0 0 0 0 0 0 -0 -0 -0 -0 -0 -0 -0 -0 -0 -0 0 0 0 -0 -0 -0 0 -0 -0 -0 0 0 0 0 0 0 -0 -0 -0 0
0 0 0 0 0 0 0 0 0 0 0 0 0 0 0 0 0 0 0 -0 -0 -0 -0 -0 0 -0 -0 -0 0 -0 0 0 -0 -0 -0 -0 -0 -0 -0 0 0 -0 -0 0 0 0 0 0 0 -0 -0 -0 -0 0
0 0 0 0 0 0 0 0 0 0 0 0 0 0 0 0 0 0 0 0 0 0 0 0 0 -0 -0 -0 -0 0 0 0 -0 0 0 -0 -0 -0 0 0 -0 -0 -0 0 0 0 0 0 0 0 0 0 0 -0
0 0 0 0 0 0 0 0 0 0 0 0 0 0 0 0 0 0 0 0 0 0 0 0 0 -0 0 0 -0 -0 -0 0 0 0 0 0 0 0 0 0 -0 0 0 0 0 0 0 -0 0 0 0 0 0 0
-0 0 0 0 0 0 0 0 0 0 0 0 0 0 0 0 0 0 0 0 0 0 0 -0 -0 -0 -0 0 0 0 -0 0 0 0 0 0 0 0 0 0 0 0 0 0 0 0 -0 -0 0 0 0 0 0 0
0 0 0 0 0 0 0 0 0 0 0 0 0 0 0 0 0 0 0 0 -0 -0 -0 -0 -0 0 0 0 0 0 0 0 0 0 0 0 -0 -0 0 0 0 0 0 0 0 0 0 0 0 0 0 0 0 0
0 0 0 0 0 0 0 0 0 0 0 0 0 0 0 0 0 0 -0 -0 0 0 0 0 0 0 0 0 0 0 0 0 0 0 0 0 -0 -0 0 0 0 0 0 0 0 0 0 -0 0 0 0 0 0 0
0 -0 0 0 0 0 0 0 0 0 0 0 -0 -0 -0 -0 0 0 -0 -0 -0 0 0 0 0 0 0 0 0 0 0 0 0 0 0 0 0 -0 -0 -0 0 0 0 0 0 0 0 0 -0 0 0 0 0 0
0 0 -0 0 0 0 0 0 -0 -0 -0 -0 -0 0 0 -0 -0 0 -0 -0 -0 0 0 0 0 -0 -0 0 0 0 0 0 0 0 0 0 0 0 -0 -0 0 0 0 0 0 -0 -0 0 0 0 0 0 0 0
Wind_Speed_500mb
23 24 24 23 24 33 30 31 31 30 25 27 35 36 43 43 37 29 24 14 13 7 15 10 9 5 8 7 6 16 6 8 10 7 3 3 3 4 5 2 5 2 6 5 5 3 10 8 3 9 5 10 3 9
21 22 24 23 21 21 33 31 30 29 28 26 31 36 42 41 42 31 22 21 14 19 13 17 26 28 25 19 13 12 5 4 8 3 0 0 4 2 4 5 0 5 2 3 6 1 2 6 7 10 1 0 4 6
16 18 30 28 26 24 21 27 35 30 28 28 28 36 37 41 45 40 29 17 12 10 24 28 20 12 19 23 18 6 2 8 6 4 1 3 2 2 6 5 4 3 3 4 4 6 5 5 3 2 3 6 7 8
18 17 16 21 27 26 25 24 26 37 31 29 28 29 36 41 42 35 30 25 14 5 7 7 6 9 15 21 22 22 23 17 12 7 2 2 2 3 2 3 3 3 14 9 5 9 10 19 19 15 14 13 9 4
21 21 19 17 15 22 27 27 26 29 37 31 28 27 31 41 35 33 31 32 24 11 6 15 28 7 11 22 24 25 21 13 8 4 2 2 3 4 4 1 6 13 9 8 9 13 14 15 18 30 25 17 12 10
28 26 23 21 19 18 22 27 28 27 37 33 28 28 32 46 38 34 13 30 28 21 7 6 10 7 8 18 23 27 20 13 6 2 0 1 1 2 5 6 8 22 29 26 13 12 18 24 24 31 24 21 21 18
37 35 32 29 25 23 25 30 31 29 41 34 30 30 37 53 43 22 8 9 42 21 6 9 8 4 2 12 15 19 18 6 3 2 2 2 3 3 4 9 13 27 28 29 27 24 21 28 22 27 24 27 21 16
49 48 46 42 37 33 31 33 34 32 44 37 29 32 38 51 44 17 3 5 32 26 7 4 5 7 3 3 6 9 9 8 2 1 3 5 4 5 7 22 26 31 29 31 32 32 28 22 21 24 27 24 23 20
41 42 42 41 40 40 39 36 43 36 47 39 34 32 38 45 19 24 5 3 38 10 4 4 4 2 2 3 7 6 7 5 4 7 7 7 5 10 13 14 18 18 12 21 29 19 26 32 22 24 29 28 21 16
38 43 43 42 41 43 46 47 52 50 50 46 49 19 18 24 28 31 8 8 11 7 6 6 5 3 1 2 4 6 2 3 5 4 6 7 8 21 17 23 32 34 31 28 21 13 20 27 24 24 18 18 17 18
29 39 51 52 52 48 53 69 60 61 62 55 18 10 42 40 21 9 5 7 7 5 11 12 19 5 2 1 4 2 4 4 5 4 5 4 6 0 18 19 20 18 11 13 8 4 4 7 19 17 14 13 14 17
15 28 40 53 61 59 65 78 75 83 63 33 25 45 43 13 8 8 8 9 7 9 14 13 22 20 4 3 3 5 2 3 5 3 5 4 3 6 11 19 23 23 19 17 14 16 17 16 12 5 7 15 23 31
20 24 45 56 60 59 93 83 85 72 60 55 22 14 11 7 8 13 16 7 9 12 15 11 7 13 15 4 4 3 6 4 1 4 4 7 9 9 12 16 23 25 25 23 20 16 12 11 13 19 26 31 37 40
25 31 49 56 74 85 88 89 87 72 52 12 10 12 11 10 13 11 18 16 16 14 27 30 17 10 8 8 4 5 3 3 4 5 12 4 17 15 12 11 9 12 13 14 14 17 21 25 27 28 32 32 29 30
30 37 52 79 87 91 89 91 81 56 11 7 9 10 11 8 12 13 16 12 14 19 31 23 11 6 6 6 3 3 7 6 9 8 1 12 19 16 10 5 6 10 14 18 21 24 26 24 26 30 26 31 31 27
52 62 70 90 90 83 88 85 39 21 6 5 5 7 5 9 12 11 12 16 22 31 35 8 7 7 5 7 6 8 5 12 4 4 8 22 19 10 3 5 10 15 18 18 21 21 21 22 24 29 31 26 23 34
64 63 72 79 84 86 78 42 27 6 5 5 4 5 9 2 5 10 18 24 29 31 14 6 7 5 10 7 9 9 9 3 2 7 17 19 12 4 4 10 15 17 17 16 19 24 24 23 23 22 23 27 24 20
64 61 88 79 69 51 36 17 11 6 3 3 2 4 8 10 4 5 18 31 31 25 18 6 12 7 9 10 7 8 12 3 11 17 16 10 4 6 11 15 17 20 19 19 23 21 18 17 20 21 21 15 18 13
53 51 57 55 39 21 6 5 7 5 3 2 8 13 11 9 15 21 19 40 27 32 17 9 5 6 6 8 5 5 10 12 13 13 8 8 10 10 11 13 14 17 19 20 18 14 15 13 15 15 14 11 13 17
37 41 45 33 9 4 4 5 3 3 0 1 8 8 5 3 5 13 28 36 29 29 9 4 6 4 3 4 5 12 15 11 8 7 8 11 10 11 13 15 15 16 20 16 8 9 7 9 11 10 9 11 14 12
30 26 26 22 5 7 3 5 5 6 5 6 5 8 6 13 16 17 18 31 15 9 8 6 6 9 16 15 12 7 4 4 7 10 11 13 14 19 18 17 18 19 19 13 5 5 3 6 4 6 11 14 18 21
23 18 12 6 6 5 4 8 4 3 2 3 3 7 9 8 8 6 10 8 5 5 9 13 17 15 12 8 5 2 5 8 10 13 15 19 23 20 22 20 20 17 16 6 6 5 1 2 9 14 16 18 18 20
10 7 3 1 2 4 1 5 6 8 4 8 6 5 5 6 9 19 5 6 6 14 21 24 20 15 9 4 6 9 7 8 11 15 17 20 25 27 27 22 24 18 10 14 12 8 5 6 13 19 21 21 17 21
5 4 6 7 8 3 4 5 7 6 7 4 3 5 4 8 18 5 4 5 19 31 27 23 17 12 6 5 10 10 11 15 16 18 20 24 23 21 19 17 17 13 12 12 12 13 15 21 21 18 23 22 21 20
5 4 3 3 4 6 4 4 6 5 4 4 7 5 5 7 3 2 4 10 28 26 25 16 7 4 5 11 19 19 14 16 20 24 19 15 11 10 11 12 12 13 9 7 8 21 29 28 24 21 21 19 23 25
1 2 2 1 1 0 1 2 2 4 4 4 5 5 4 3 3 3 3 20 28 24 17 8 6 8 11 17 24 19 10 14 19 19 17 10 8 11 15 17 17 15 8 7 25 35 29 26 20 17 21 20 24 32
2 1 1 2 2 4 4 3 3 1 4 3 4 4 3 4 3 2 9 18 17 17 7 4 2 6 18 15 11 10 13 12 13 16 15 8 14 20 17 14 12 9 11 23 35 29 23 23 28 35 35 33 30 27
1 2 1 3 2 2 3 3 2 3 3 5 6 3 3 3 3 8 11 16 18 10 7 5 5 13 18 17 10 10 8 6 8 6 13 12 12 15 18 16 10 10 20 34 38 28 25 33 39 36 37 39 40 38
2 1 3 4 5 6 9 7 5 4 5 3 4 4 5 6 13 17 13 12 10 6 3 3 7 21 13 14 6 7 7 3 9 14 7 3 4 9 14 16 19 25 36 42 36 27 28 47 41 37 41 45 44 46
4 6 5 8 8 9 9 7 4 6 8 12 13 21 23 21 19 15 10 6 2 3 3 6 20 15 10 13 8 3 6 15 27 13 8 10 12 19 20 23 33 43 47 42 36 34 43 52 41 35 37 42 41 39
5 5 8 9 8 11 16 22 19 20 23 23 27 27 21 19 16 13 13 11 6 2 3 13 19 11 3 5 4 14 36 29 21 24 22 23 22 21 26 28 36 43 40 42 39 44 50 43 33 28 31 32 31 29
6 6 8 6 8 11 18 17 19 19 20 22 18 19 13 6 4 3 7 13 12 6 6 12 21 10 10 4 15 30 40 33 35 26 19 15 15 18 17 25 34 38 38 42 39 40 42 40 36 31 30 25 24 24
9 11 15 10 6 5 6 8 6 7 5 7 5 3 5 4 4 2 5 12 13 9 6 16 18 12 3 7 28 48 37 29 25 37 35 14 16 13 17 22 28 33 36 37 38 39 39 40 35 33 28 21 22 24
Wind_Direction_500mb
214 218 217 221 219 209 209 210 213 217 219 209 203 200 195 196 198 207 219 217 207 249 271 266 261 283 342 19 355 331 300 14 356 53 5 125 130 102 110 335 58 101 152 145 113 165 263 19 246 222 346 318 289 177
212 209 211 210 209 212 206 205 210 212 210 207 202 199 199 198 189 199 216 219 226 236 260 278 268 266 272 286 287 323 349 333 19 28 81 109 110 114 65 174 207 220 300 99 220 334 348 295 262 305 228 154 145 167
210 218 215 215 213 208 205 211 203 206 210 204 201 198 200 200 200 208 209 205 239 263 286 275 278 264 254 258 256 252 7 15 22 17 103 75 127 186 162 198 133 96 109 120 193 185 244 269 276 213 207 200 206 215
227 226 222 209 206 203 201 206 211 200 202 201 200 195 193 194 190 200 198 204 202 259 279 288 343 304 256 238 229 234 260 308 330 335 330 68 65 216 128 67 275 66 157 162 229 245 256 245 231 213 207 198 185 184
240 242 234 227 217 201 198 196 206 202 196 197 197 194 192 177 175 187 199 204 212 224 306 297 317 31 225 228 233 230 237 257 296 290 293 16 89 169 72 230 222 194 169 202 244 219 241 252 273 231 212 206 222 238
249 249 246 238 231 221 198 194 194 199 187 189 189 185 178 167 168 164 203 214 214 218 283 294 321 313 316 218 227 212 199 225 224 215 314 276 254 284 225 227 260 228 234 249 279 300 244 279 262 218 219 237 242 240
250 248 246 240 235 231 209 189 189 192 179 181 185 177 170 167 164 163 175 188 205 189 243 281 296 314 82 113 152 173 189 189 176 174 227 272 195 210 235 244 259 265 281 287 284 270 269 254 221 220 248 256 241 227
252 249 247 242 233 221 213 189 183 184 174 175 178 170 170 172 174 184 153 179 182 181 219 265 279 310 171 154 113 135 153 172 175 174 239 237 176 220 251 240 260 277 286 287 284 270 250 243 226 250 248 223 213 225
245 240 236 227 222 216 206 188 174 176 168 169 163 154 155 167 181 184 129 129 171 183 215 209 252 146 355 111 113 120 158 186 203 224 217 196 185 226 241 273 288 303 304 309 316 291 239 240 254 253 216 209 213 226
243 235 224 218 216 207 193 177 167 168 167 151 143 126 146 174 157 139 128 137 168 215 222 248 210 249 340 153 101 134 108 154 222 171 146 224 248 265 289 299 295 291 284 273 280 269 238 233 230 200 199 209 226 245
240 229 220 212 205 198 185 166 164 165 154 150 155 134 149 150 135 156 160 162 185 202 214 227 200 215 178 192 122 105 145 172 235 134 247 200 252 199 338 338 334 330 251 211 226 300 221 205 183 189 206 231 246 258
238 216 203 195 195 189 179 162 166 164 159 145 136 135 139 137 145 163 192 152 208 205 201 205 209 197 183 148 159 172 217 179 240 124 232 231 209 29 45 51 58 71 93 110 108 110 109 121 136 174 258 278 282 283
213 198 184 179 177 177 164 164 171 157 149 137 121 149 148 154 172 194 178 178 198 202 181 159 139 181 203 242 90 186 223 228 134 215 240 245 127 117 101 91 88 88 88 87 77 64 44 12 333 312 304 301 299 298
196 181 180 178 166 164 160 168 159 155 145 132 136 141 193 179 201 191 196 180 203 167 164 159 145 147 153 155 169 229 126 218 221 231 228 145 160 139 125 107 100 72 54 33 11 352 338 329 324 323 320 315 315 313
128 151 162 162 156 157 163 160 160 161 131 131 159 177 185 196 209 224 209 198 176 162 152 148 104 120 124 126 189 144 188 225 222 237 349 157 153 148 137 101 35 8 358 351 345 341 334 332 331 328 327 324 319 321
107 124 147 148 150 157 157 160 163 131 94 122 157 144 162 191 213 210 201 202 175 160 160 156 137 161 148 136 149 190 195 221 230 217 156 153 155 150 119 1 341 341 343 343 343 344 343 334 325 321 323 327 329 330
120 122 140 143 148 153 158 150 136 112 120 165 241 232 178 306 237 209 196 192 182 166 178 154 154 121 127 157 194 191 222 272 305 144 150 156 161 182 323 336 337 336 336 334 333 333 331 325 330 336 339 333 337 339
107 123 141 144 146 144 117 110 103 133 185 219 224 304 232 232 263 251 205 187 169 188 184 174 131 173 176 183 210 220 213 161 140 146 152 169 237 284 319 333 336 333 336 331 330 332 334 336 339 339 337 348 353 19
113 137 145 145 146 143 57 111 110 121 178 207 262 262 259 254 249 243 212 187 180 180 164 163 174 185 199 217 254 177 166 157 160 174 205 262 279 291 308 319 329 328 317 316 324 339 335 341 345 353 3 9 48 33
109 125 145 149 130 118 82 56 126 92 268 239 234 251 249 221 197 180 164 165 169 170 193 200 189 177 212 241 182 152 156 166 193 233 264 275 266 294 302 299 297 308 299 311 309 317 334 6 6 42 66 73 55 46
116 135 160 186 210 352 82 144 191 211 209 227 233 168 136 126 107 129 143 156 156 161 163 211 189 161 148 136 142 151 190 246 266 274 282 291 282 291 288 279 279 288 297 296 265 262 286 22 76 80 129 89 85 87
114 125 125 181 226 249 248 194 217 186 182 88 87 85 63 66 79 84 91 69 129 171 188 172 158 153 154 171 183 262 305 306 303 298 291 290 292 291 288 291 285 287 290 217 193 168 184 95 145 130 141 113 106 105
95 93 80 96 162 224 196 156 184 180 158 170 103 92 113 123 158 153 134 161 157 170 167 167 172 167 177 206 289 299 293 297 297 301 299 295 289 281 273 264 271 272 255 208 206 192 190 170 134 130 137 127 129 122
187 212 213 204 190 241 173 170 182 183 149 119 99 82 129 141 160 191 110 129 153 156 163 160 155 149 133 19 356 313 286 280 285 302 304 303 293 277 265 250 250 231 205 212 235 248 197 164 154 143 136 134 129 118
208 221 231 284 191 164 229 158 152 136 100 159 172 167 157 151 126 113 140 148 165 164 161 153 149 187 311 322 327 318 282 267 281 297 311 305 280 246 238 216 171 162 180 224 229 155 148 155 166 154 155 154 144 142
107 204 186 247 187 243 44 52 86 118 127 111 78 105 117 118 110 129 176 170 172 176 179 184 263 273 286 301 303 300 272 281 285 290 294 303 238 209 179 166 166 178 157 145 152 145 145 149 157 166 172 169 164 160
75 355 49 168 111 116 109 97 93 109 96 107 142 138 153 98 91 67 140 157 171 167 171 192 191 317 324 318 302 279 302 294 286 291 294 239 201 176 173 173 178 173 177 153 149 141 143 150 144 130 126 131 137 148
128 302 16 129 170 175 135 127 94 76 115 138 135 73 85 84 124 143 141 148 149 149 147 169 303 327 340 331 297 274 281 316 316 172 139 137 150 174 183 189 197 179 165 156 151 141 143 151 136 132 134 130 126 132
92 26 93 86 117 77 37 22 35 48 111 75 91 92 91 79 117 118 129 139 162 169 210 269 320 334 325 320 342 336 301 203 167 123 103 144 185 181 184 179 170 161 157 149 146 151 159 152 133 127 128 129 126 129
41 41 87 49 46 23 7 3 49 91 98 100 95 112 107 110 111 112 111 95 43 301 315 354 334 333 331 335 334 16 138 124 116 103 100 112 127 131 135 143 146 149 150 149 151 151 155 151 138 126 128 131 133 135
90 78 72 60 70 58 62 78 89 101 95 98 118 114 115 111 107 103 68 36 28 52 31 352 355 336 337 9 145 136 133 127 111 95 72 74 87 120 132 142 152 153 153 152 149 151 158 160 158 145 140 139 141 141
60 76 115 110 124 118 97 73 77 87 97 105 108 120 124 113 96 104 20 15 11 339 273 341 354 351 331 111 159 147 139 126 96 86 89 68 82 94 131 151 156 161 157 158 158 157 162 158 158 153 146 143 146 150
86 100 116 115 119 136 146 128 119 133 137 157 161 143 101 112 107 122 21 19 24 23 28 337 354 347 5 113 155 143 141 141 104 59 54 108 104 108 107 143 158 162 164 165 167 166 169 172 162 156 148 136 153 157
Wind_Speed_850mb
23 24 24 23 24 33 30 31 31 30 25 27 35 36 43 43 37 29 24 14 13 7 15 10 9 5 8 7 6 16 6 8 10 7 3 3 3 4 5 2 5 2 6 5 5 3 10 8 3 9 5 10 3 9
21 22 24 23 21 21 33 31 30 29 28 26 31 36 42 41 42 31 22 21 14 19 13 17 26 28 25 19 13 12 5 4 8 3 0 0 4 2 4 5 0 5 2 3 6 1 2 6 7 10 1 0 4 6
16 18 30 28 26 24 21 27 35 30 28 28 28 36 37 41 45 40 29 17 12 10 24 28 20 12 19 23 18 6 2 8 6 4 1 3 2 2 6 5 4 3 3 4 4 6 5 5 3 2 3 6 7 8
18 17 16 21 27 26 25 24 26 37 31 29 28 29 36 41 42 35 30 25 14 5 7 7 6 9 15 21 22 22 23 17 12 7 2 2 2 3 2 3 3 3 14 9 5 9 10 19 19 15 14 13 9 4
21 21 19 17 15 22 27 27 26 29 37 31 28 27 31 41 35 33 31 32 24 11 6 15 28 7 11 22 24 25 21 13 8 4 2 2 3 4 4 1 6 13 9 8 9 13 14 15 18 30 25 17 12 10
28 26 23 21 19 18 22 27 28 27 37 33 28 28 32 46 38 34 13 30 28 21 7 6 10 7 8 18 23 27 20 13 6 2 0 1 1 2 5 6 8 22 29 26 13 12 18 24 24 31 24 21 21 18
37 35 32 29 25 23 25 30 31 29 41 34 30 30 37 53 43 22 8 9 42 21 6 9 8 4 2 12 15 19 18 6 3 2 2 2 3 3 4 9 13 27 28 29 27 24 21 28 22 27 24 27 21 16
49 48 46 42 37 33 31 33 34 32 44 37 29 32 38 51 44 17 3 5 32 26 7 4 5 7 3 3 6 9 9 8 2 1 3 5 4 5 7 22 26 31 29 31 32 32 28 22 21 24 27 24 23 20
41 42 42 41 40 40 39 36 43 36 47 39 34 32 38 45 19 24 5 3 38 10 4 4 4 2 2 3 7 6 7 5 4 7 7 7 5 10 13 14 18 18 12 21 29 19 26 32 22 24 29 28 21 16
38 43 43 42 41 43 46 47 52 50 50 46 49 19 18 24 28 31 8 8 11 7 6 6 5 3 1 2 4 6 2 3 5 4 6 7 8 21 17 23 32 34 31 28 21 13 20 27 24 24 18 18 17 18
29 39 51 52 52 48 53 69 60 61 62 55 18 10 42 40 21 9 5 7 7 5 11 12 19 5 2 1 4 2 4 4 5 4 5 4 6 0 18 19 20 18 11 13 8 4 4 7 19 17 14 13 14 17
15 28 40 53 61 59 65 78 75 83 63 33 25 45 43 13 8 8 8 9 7 9 14 13 22 20 4 3 3 5 2 3 5 3 5 4 3 6 11 19 23 23 19 17 14 16 17 16 12 5 7 15 23 31
20 24 45 56 60 59 93 83 85 72 60 55 22 14 11 7 8 13 16 7 9 12 15 11 7 13 15 4 4 3 6 4 1 4 4 7 9 9 12 16 23 25 25 23 20 16 12 11 13 19 26 31 37 40
25 31 49 56 74 85 88 89 87 72 52 12 10 12 11 10 13 11 18 16 16 14 27 30 17 10 8 8 4 5 3 3 4 5 12 4 17 15 12 11 9 12 13 14 14 17 21 25 27 28 32 32 29 30
30 37 52 79 87 91 89 91 81 56 11 7 9 10 11 8 12 13 16 12 14 19 31 23 11 6 6 6 3 3 7 6 9 8 1 12 19 16 10 5 6 10 14 18 21 24 26 24 26 30 26 31 31 27
52 62 70 90 90 83 88 85 39 21 6 5 5 7 5 9 12 11 12 16 22 31 35 8 7 7 5 7 6 8 5 12 4 4 8 22 19 10 3 5 10 15 18 18 21 21 21 22 24 29 31 26 23 34
64 63 72 79 84 86 78 42 27 6 5 5 4 5 9 2 5 10 18 24 29 31 14 6 7 5 10 7 9 9 9 3 2 7 17 19 12 4 4 10 15 17 17 16 19 24 24 23 23 22 23 27 24 20
64 61 88 79 69 51 36 17 11 6 3 3 2 4 8 10 4 5 18 31 31 25 18 6 12 7 9 10 7 8 12 3 11 17 16 10 4 6 11 15 17 20 19 19 23 21 18 17 20 21 21 15 18 13
53 51 57 55 39 21 6 5 7 5 3 2 8 13 11 9 15 21 19 40 27 32 17 9 5 6 6 8 5 5 10 12 13 13 8 8 10 10 11 13 14 17 19 20 18 14 15 13 15 15 14 11 13 17
37 41 45 33 9 4 4 5 3 3 0 1 8 8 5 3 5 13 28 36 29 29 9 4 6 4 3 4 5 12 15 11 8 7 8 11 10 11 13 15 15 16 20 16 8 9 7 9 11 10 9 11 14 12
30 26 26 22 5 7 3 5 5 6 5 6 5 8 6 13 16 17 18 31 15 9 8 6 6 9 16 15 12 7 4 4 7 10 11 13 14 19 18 17 18 19 19 13 5 5 3 6 4 6 11 14 18 21
23 18 12 6 6 5 4 8 4 3 2 3 3 7 9 8 8 6 10 8 5 5 9 13 17 15 12 8 5 2 5 8 10 13 15 19 23 20 22 20 20 17 16 6 6 5 1 2 9 14 16 18 18 20
10 7 3 1 2 4 1 5 6 8 4 8 6 5 5 6 9 19 5 6 6 14 21 24 20 15 9 4 6 9 7 8 11 15 17 20 25 27 27 22 24 18 10 14 12 8 5 6 13 19 21 21 17 21
5 4 6 7 8 3 4 5 7 6 7 4 3 5 4 8 18 5 4 5 19 31 27 23 17 12 6 5 10 10 11 15 16 18 20 24 23 21 19 17 17 13 12 12 12 13 15 21 21 18 23 22 21 20
5 4 3 3 4 6 4 4 6 5 4 4 7 5 5 7 3 2 4 10 28 26 25 16 7 4 5 11 19 19 14 16 20 24 19 15 11 10 11 12 12 13 9 7 8 21 29 28 24 21 21 19 23 25
1 2 2 1 1 0 1 2 2 4 4 4 5 5 4 3 3 3 3 20 28 24 17 8 6 8 11 17 24 19 10 14 19 19 17 10 8 11 15 17 17 15 8 7 25 35 29 26 20 17 21 20 24 32
2 1 1 2 2 4 4 3 3 1 4 3 4 4 3 4 3 2 9 18 17 17 7 4 2 6 18 15 11 10 13 12 13 16 15 8 14 20 17 14 12 9 11 23 35 29 23 23 28 35 35 33 30 27
1 2 1 3 2 2 3 3 2 3 3 5 6 3 3 3 3 8 11 16 18 10 7 5 5 13 18 17 10 10 8 6 8 6 13 12 12 15 18 16 10 10 20 34 38 28 25 33 39 36 37 39 40 38
2 1 3 4 5 6 9 7 5 4 5 3 4 4 5 6 13 17 13 12 10 6 3 3 7 21 13 14 6 7 7 3 9 14 7 3 4 9 14 16 19 25 36 42 36 27 28 47 41 37 41 45 44 46
4 6 5 8 8 9 9 7 4 6 8 12 13 21 23 21 19 15 10 6 2 3 3 6 20 15 10 13 8 3 6 15 27 13 8 10 12 19 20 23 33 43 47 42 36 34 43 52 41 35 37 42 41 39
5 5 8 9 8 11 16 22 19 20 23 23 27 27 21 19 16 13 13 11 6 2 3 13 19 11 3 5 4 14 36 29 21 24 22 23 22 21 26 28 36 43 40 42 39 44 50 43 33 28 31 32 31 29
6 6 8 6 8 11 18 17 19 19 20 22 18 19 13 6 4 3 7 13 12 6 6 12 21 10 10 4 15 30 40 33 35 26 19 15 15 18 17 25 34 38 38 42 39 40 42 40 36 31 30 25 24 24
9 11 15 10 6 5 6 8 6 7 5 7 5 3 5 4 4 2 5 12 13 9 6 16 18 12 3 7 28 48 37 29 25 37 35 14 16 13 17 22 28 33 36 37 38 39 39 40 35 33 28 21 22 24
Wind_Direction_850mb
214 218 217 221 219 209 209 210 213 217 219 209 203 200 195 196 198 207 219 217 207 249 271 266 261 283 342 19 355 331 300 14 356 53 5 125 130 102 110 335 58 101 152 145 113 165 263 19 246 222 346 318 289 177
212 209 211 210 209 212 206 205 210 212 210 207 202 199 199 198 189 199 216 219 226 236 260 278 268 266 272 286 287 323 349 333 19 28 81 109 110 114 65 174 207 220 300 99 220 334 348 295 262 305 228 154 145 167
210 218 215 215 213 208 205 211 203 206 210 204 201 198 200 200 200 208 209 205 239 263 286 275 278 264 254 258 256 252 7 15 22 17 103 75 127 186 162 198 133 96 109 120 193 185 244 269 276 213 207 200 206 215
227 226 222 209 206 203 201 206 211 200 202 201 200 195 193 194 190 200 198 204 202 259 279 288 343 304 256 238 229 234 260 308 330 335 330 68 65 216 128 67 275 66 157 162 229 245 256 245 231 213 207 198 185 184
240 242 234 227 217 201 198 196 206 202 196 197 197 194 192 177 175 187 199 204 212 224 306 297 317 31 225 228 233 230 237 257 296 290 293 16 89 169 72 230 222 194 169 202 244 219 241 252 273 231 212 206 222 238
249 249 246 238 231 221 198 194 194 199 187 189 189 185 178 167 168 164 203 214 214 218 283 294 321 313 316 218 227 212 199 225 224 215 314 276 254 284 225 227 260 228 234 249 279 300 244 279 262 218 219 237 242 240
250 248 246 240 235 231 209 189 189 192 179 181 185 177 170 167 164 163 175 188 205 189 243 281 296 314 82 113 152 173 189 189 176 174 227 272 195 210 235 244 259 265 281 287 284 270 269 254 221 220 248 256 241 227
252 249 247 242 233 221 213 189 183 184 174 175 178 170 170 172 174 184 153 179 182 181 219 265 279 310 171 154 113 135 153 172 175 174 239 237 176 220 251 240 260 277 286 287 284 270 250 243 226 250 248 223 213 225
245 240 236 227 222 216 206 188 174 176 168 169 163 154 155 167 181 184 129 129 171 183 215 209 252 146 355 111 113 120 158 186 203 224 217 196 185 226 241 273 288 303 304 309 316 291 239 240 254 253 216 209 213 226
243 235 224 218 216 207 193 177 167 168 167 151 143 126 146 174 157 139 128 137 168 215 222 248 210 249 340 153 101 134 108 154 222 171 146 224 248 265 289 299 295 291 284 273 280 269 238 233 230 200 199 209 226 245
240 229 220 212 205 198 185 166 164 165 154 150 155 134 149 150 135 156 160 162 185 202 214 227 200 215 178 192 122 105 145 172 235 134 247 200 252 199 338 338 334 330 251 211 226 300 221 205 183 189 206 231 246 258
238 216 203 195 195 189 179 162 166 164 159 145 136 135 139 137 145 163 192 152 208 205 201 205 209 197 183 148 159 172 217 179 240 124 232 231 209 29 45 51 58 71 93 110 108 110 109 121 136 174 258 278 282 283
213 198 184 179 177 177 164 164 171 157 149 137 121 149 148 154 172 194 178 178 198 202 181 159 139 181 203 242 90 186 223 228 134 215 240 245 127 117 101 91 88 88 88 87 77 64 44 12 333 312 304 301 299 298
196 181 180 178 166 164 160 168 159 155 145 132 136 141 193 179 201 191 196 180 203 167 164 159 145 147 153 155 169 229 126 218 221 231 228 145 160 139 125 107 100 72 54 33 11 352 338 329 324 323 320 315 315 313
128 151 162 162 156 157 163 160 160 161 131 131 159 177 185 196 209 224 209 198 176 162 152 148 104 120 124 126 189 144 188 225 222 237 349 157 153 148 137 101 35 8 358 351 345 341 334 332 331 328 327 324 319 321
107 124 147 148 150 157 157 160 163 131 94 122 157 144 162 191 213 210 201 202 175 160 160 156 137 161 148 136 149 190 195 221 230 217 156 153 155 150 119 1 341 341 343 343 343 344 343 334 325 321 323 327 329 330
120 122 140 143 148 153 158 150 136 112 120 165 241 232 178 306 237 209 196 192 182 166 178 154 154 121 127 157 194 191 222 272 305 144 150 156 161 182 323 336 337 336 336 334 333 333 331 325 330 336 339 333 337 339
107 123 141 144 146 144 117 110 103 133 185 219 224 304 232 232 263 251 205 187 169 188 184 174 131 173 176 183 210 220 213 161 140 146 152 169 237 284 319 333 336 333 336 331 330 332 334 336 339 339 337 348 353 19
113 137 145 145 146 143 57 111 110 121 178 207 262 262 259 254 249 243 212 187 180 180 164 163 174 185 199 217 254 177 166 157 160 174 205 262 279 291 308 319 329 328 317 316 324 339 335 341 345 353 3 9 48 33
109 125 145 149 130 118 82 56 126 92 268 239 234 251 249 221 197 180 164 165 169 170 193 200 189 177 212 241 182 152 156 166 193 233 264 275 266 294 302 299 297 308 299 311 309 317 334 6 6 42 66 73 55 46
116 135 160 186 210 352 82 144 191 211 209 227 233 168 136 126 107 129 143 156 156 161 163 211 189 161 148 136 142 151 190 246 266 274 282 291 282 291 288 279 279 288 297 296 265 262 286 22 76 80 129 89 85 87
114 125 125 181 226 249 248 194 217 186 182 88 87 85 63 66 79 84 91 69 129 171 188 172 158 153 154 171 183 262 305 306 303 298 291 290 292 291 288 291 285 287 290 217 193 168 184 95 145 130 141 113 106 105
95 93 80 96 162 224 196 156 184 180 158 170 103 92 113 123 158 153 134 161 157 170 167 167 172 167 177 206 289 299 293 297 297 301 299 295 289 281 273 264 271 272 255 208 206 192 190 170 134 130 137 127 129 122
187 212 213 204 190 241 173 170 182 183 149 119 99 82 129 141 160 191 110 129 153 156 163 160 155 149 133 19 356 313 286 280 285 302 304 303 293 277 265 250 250 231 205 212 235 248 197 164 154 143 136 134 129 118
208 221 231 284 191 164 229 158 152 136 100 159 172 167 157 151 126 113 140 148 165 164 161 153 149 187 311 322 327 318 282 267 281 297 311 305 280 246 238 216 171 162 180 224 229 155 148 155 166 154 155 154 144 142
107 204 186 247 187 243 44 52 86 118 127 111 78 105 117 118 110 129 176 170 172 176 179 184 263 273 286 301 303 300 272 281 285 290 294 303 238 209 179 166 166 178 157 145 152 145 145 149 157 166 172 169 164 160
75 355 49 168 111 116 109 97 93 109 96 107 142 138 153 98 91 67 140 157 171 167 171 192 191 317 324 318 302 279 302 294 286 291 294 239 201 176 173 173 178 173 177 153 149 141 143 150 144 130 126 131 137 148
128 302 16 129 170 175 135 127 94 76 115 138 135 73 85 84 124 143 141 148 149 149 147 169 303 327 340 331 297 274 281 316 316 172 139 137 150 174 183 189 197 179 165 156 151 141 143 151 136 132 134 130 126 132
92 26 93 86 117 77 37 22 35 48 111 75 91 92 91 79 117 118 129 139 162 169 210 269 320 334 325 320 342 336 301 203 167 123 103 144 185 181 184 179 170 161 157 149 146 151 159 152 133 127 128 129 126 129
41 41 87 49 46 23 7 3 49 91 98 100 95 112 107 110 111 112 111 95 43 301 315 354 334 333 331 335 334 16 138 124 116 103 100 112 127 131 135 143 146 149 150 149 151 151 155 151 138 126 128 131 133 135
90 78 72 60 70 58 62 78 89 101 95 98 118 114 115 111 107 103 68 36 28 52 31 352 355 336 337 9 145 136 133 127 111 95 72 74 87 120 132 142 152 153 153 152 149 151 158 160 158 145 140 139 141 141
60 76 115 110 124 118 97 73 77 87 97 105 108 120 124 113 96 104 20 15 11 339 273 341 354 351 331 111 159 147 139 126 96 86 89 68 82 94 131 151 156 161 157 158 158 157 162 158 158 153 146 143 146 150
86 100 116 115 119 136 146 128 119 133 137 157 161 143 101 112 107 122 21 19 24 23 28 337 354 347 5 113 155 143 141 141 104 59 54 108 104 108 107 143 158 162 164 165 167 166 169 172 162 156 148 136 153 157